211  
ASUS41 KBOX 290305  
RWRBOX  
 
REGIONAL WEATHER ROUNDUP  
NATIONAL WEATHER SERVICE BOSTON/NORTON MA  
1100 PM EDT SAT MAR 28 2020  
 
NOTE: "FAIR" INDICATES FEW OR NO CLOUDS BELOW 12,000 FEET WITH NO  
SIGNIFICANT WEATHER AND/OR S TO VISIBILITY
.  
 
MAZALL-290400-  
EASTERN MASSACHUSETTS  
 
CITY SKY/WX TMP DP RH WIND PRES REMARKS
 
BOSTON LGT RAIN 42 39 89 SE7 30.21S  
BEVERLY LGT RAIN 45 39 79 S3 30.19S  
LAWRENCE LGT RAIN 45 40 82 CALM 30.20F  
BEDFORD LGT RAIN 45 41 86 E5 30.18S  
BLUE HILL N/A 40 39 97 E9 30.16S  
NORWOOD LGT RAIN 44 41 89 E3 30.19F  
MARSHFIELD CLOUDY 45 43 93 E5 30.20F  
PLYMOUTH LGT RAIN 43 42 97 E5 30.20S  
TAUNTON LGT RAIN 43 41 93 NE3 30.18F FOG  
NEW BEDFORD LGT RAIN 42 42 100 E7 30.17F FOG  

 
 
MAZALL-290400-  
CAPE COD AND THE ISLANDS  
 
CITY SKY/WX TMP DP RH WIND PRES REMARKS
 
FALMOUTH DRIZZLE 43 41 93 SE6 30.20S  
HYANNIS LGT RAIN 44 41 89 E5 30.18F  
CHATHAM LGT RAIN 43 38 82 E6 30.22S  
PROVINCETOWN LGT RAIN 43 40 89 SE5 30.22S  
NANTUCKET LGT RAIN 44 42 93 E10 30.18F  
MARTHAS VNYRD LGT RAIN 44 42 93 E7 30.18S FOG  

 
 
MAZALL-290400-  
CENTRAL AND WESTERN MASSACHUSETTS  
 
CITY SKY/WX TMP DP RH WIND PRES REMARKS
 
WORCESTER LGT RAIN 41 39 93 E5 30.14F VSB 1/2  
FITCHBURG LGT RAIN 43 39 86 CALM 30.19S FOG  
ORANGE LGT RAIN 43 41 93 CALM 30.16F FOG  
SPRINGFIELD NOT AVBL  
WESTFIELD LGT RAIN 40 38 93 N8 30.14F FOG  
NORTH ADAMS LGT RAIN 41 37 86 E10 30.13S  
PITTSFIELD LGT RAIN 39 37 92 NE5 30.10S FOG  

 
 
RIZALL-290400-  
RHODE ISLAND  
 
CITY SKY/WX TMP DP RH WIND PRES REMARKS
 
PROVIDENCE LGT RAIN 43 42 97 E8 30.16F FOG  
NEWPORT LGT RAIN 44 41 89 E8 30.15F FOG  
BLOCK ISLAND LGT RAIN 43 42 97 E14 30.13F  
SMITHFIELD LGT RAIN 42 42 100 E5 30.15F  
WESTERLY LGT RAIN 47 41 80 E12 30.13F  

 
 
CTZALL-290400-  
CONNECTICUT  
 
CITY SKY/WX TMP DP RH WIND PRES REMARKS
 
BRADLEY INTL LGT RAIN 41 40 96 N9 30.14S FOG  
HARTFORD RAIN 45 42 89 N6 30.13F FOG  
BRIDGEPORT LGT RAIN 45 44 97 E20 30.07F FOG  
DANBURY CLOUDY 43 42 97 E8 30.07F  
GROTON LGT RAIN 44 43 96 E15G22 30.11F  
NEW HAVEN LGT RAIN 47 45 93 E13G21 30.08F FOG  
CHESTER LGT RAIN 45 45 100 VRB6G16 30.10F  
MERIDEN LGT RAIN 45 43 93 VRB5 30.11F  
WILLIMANTIC LGT RAIN 44 42 93 VRB3 30.14F FOG  
OXFORD LGT RAIN 42 42 100 NE7 30.08F FOG  

 
 
MEZ002-015-021-024-NHZ003-005-008-011-012-014-VTZ005-008-290400-  
NORTHERN NEW ENGLAND  
 
CITY SKY/WX TMP DP RH WIND PRES REMARKS
 
PORTLAND ME CLOUDY 43 31 62 CALM 30.21S  
BANGOR ME CLOUDY 39 28 64 S5 30.22R  
CONCORD NH CLOUDY 46 30 53 SE5 30.17F  
MANCHESTER NH LGT RAIN 48 36 63 VRB3 30.17S  
NASHUA NH LGT RAIN 43 43 100 CALM 30.19S  
PORTSMOUTH NH CLOUDY 44 35 73 S5 30.17F  
JAFFREY NH LGT RAIN 42 40 92 CALM 30.15F  
KEENE NH LGT RAIN 40 38 93 SW3 30.17F  
BURLINGTON VT CLOUDY 48 25 40 SE3 30.11F  
MT. WASHINGTON NOT AVBL  

 
 
NYZ052-076-290400-  
EASTERN NEW YORK  
 
CITY SKY/WX TMP DP RH WIND PRES REMARKS
 
ALBANY LGT RAIN 43 39 86 E3 30.11F FOG  
NEW YORK CITY LGT RAIN 45 43 93 NE20 30.03F FOG  

 
 
ANZALL-290400-  
MARINE OBSERVATIONS  
 
STATION/POSITION TIME TEMP WIND PRES VSBY WAVE
 
AIR SEA DIR/SP/G HT/PER  
(UTC) (F) (DEG/KT/KT) (MB) (MI) (FT/S)  
BOSTON BUOY 0250 43 43 130/ 8/ 8 1022.6R 1/10  
BUZZARDS BAY 0200 110/ 12/ 14 1022.6S  
NANTUCKET SOUND 0240 N/A 1/ 2  
MASS BAY-STELLWA 0204 43 42 190/ 10/ 12 1020.9F 1 7/8 2/ 4  
ISLE OF SHOALS 0200 44 170/ 15/ 16 1022.2R  
S OF BLOCK IS 0230 44 N/A 3/ 7  

 
   
.....................KEY......................
 
 
SKY/WX - SKY CONDITION/PRESENT WEATHER  
TMP - TEMPERATURE IN FAHRENHEIT  
DWPT - DEWPOINT IN FAHRENHEIT  
RH - RELATIVE HUMIDITY IN PERCENT  
WIND - DIRECTION AND SPEED IN MPH  
PRES - MEAN SEA LEVEL PRESSURE IN INCHES OF HG  
WCI - WIND CHILL INDEX  
VSB - VISIBILITY IN MILES  
HX - HEAT INDEX  
TC - TEMPERATURE IN CELSIUS  
VRB - VARIABLE WIND DIRECTION  
N/A - NOT AVAILABLE  
 
 
CLICK HERE TO GO TO PREVIOUS BULLETINS.

The Nexlab MA Page
The Nexlab RI Page
The Nexlab NH Page
The Nexlab CT Page Main Text Page